Other Surface Observations
Issued by NWS Tucson, AZ

Home | Current Version | Previous Version | Text Only | Print | Product List | Glossary On
Versions: 1 2 3 4 5 6 7 8 9 10 11 12 13 14 15 16 17 18 19 20 21 22 23 24 25 26 27 28 29 30 31 32 33 34 35 36 37 38 39 40 41 42 43 44 45 46 47 48 49 50
000
SXUS55 KTWC 180915
OSOTWC

WEATHER ROUNDUP FOR SOUTHEAST ARIZONA
NATIONAL WEATHER SERVICE TUCSON AZ
215 AM MST MON DEC 18 2017

AZZ504>506-514-181015-
LOCATION       SKY/WX    TMP DP  RH WIND       PRES   REMARKS
TUCSON         CLOUDY    50  42  74 SE9       30.03F
DAVIS-MONTHAN  CLOUDY    48  41  78 SE5       30.02F
CHILDRENS PARK N/A      N/A N/A  98 SE1               PIMA CO DEQ
ALVERNON/22ND  N/A       47 N/A N/A E1                PIMA CO DEQ
CHERRY/GLENN   N/A       46 N/A N/A S1                PIMA CO DEQ
TANGERINE      N/A       45 N/A N/A N3                PIMA CO DEQ
CONTL RANCH    N/A       44  43  97 SE1               PIMA CO DEQ
GRANT/1ST      N/A       45  44  95 E1                PIMA CO DEQ
CRAYCROFT/22ND N/A       48  42  81 SE4               PIMA CO DEQ
GOLFLINKS/KOLB N/A       48  41  76 S2                PIMA CO DEQ
AJO/12TH       N/A       46  43  89 S2                PIMA CO DEQ
FAIRGROUNDS    N/A       47 N/A N/A SE9               PIMA CO DEQ
SAGUARO        NOT AVBL
SAN CARLOS     N/A       42  40  93 CALM              *SAN CARLOS
GREEN VALLEY   N/A       43  42  98 SW1               PIMA CO DEQ
HORSE CAMP CYN N/A       42  38  87 E6G10             *ARAVAIPA CYN
RINCON MTNS    N/A       29  29  100 E4G13            *NR MANNING CAMP
$$

AZZ509>511-181015-
LOCATION       SKY/WX    TMP DP  RH WIND       PRES   REMARKS
SAFFORD        CLOUDY    47  40  76 SE6       30.04R
STRAY HORSE    N/A       30  26  86 CALM              *
TRAIL CABIN    N/A       35  34  96 SE3               *N OF GRANVILLE
BLACK HILLS    NOT AVBL
DRY LAKE       N/A       31  31  100 E4               *NATANES MTNS
NOON CREEK     N/A       41  40  95 CALM              *PINALENO MTNS
COLUMBINE      N/A       22  22  98 CALM              *PINALENO MTNS
GUTHRIE        N/A       34  34  100 NE10G13          *SW OF GUTHRIE
$$

AZZ502-503-513-181015-
LOCATION       SKY/WX    TMP DP  RH WIND       PRES   REMARKS
NOGALES        PTCLDY    39  38  96 MISG      30.02S
SELLS          N/A       47  43  87 NE3G10            *
SASABE         NOT AVBL
HOPKINS        N/A       32  32  100 E9G19            *SANTA RITA MTNS
CARR CYN       N/A       37  37  99 CALM              *W OF HEREFORD
$$

AZZ507-508-512-181015-
LOCATION       SKY/WX    TMP DP  RH WIND       PRES   REMARKS
SIERRA VISTA   MOCLDY    39  37  94 E7        30.05R WCI  34
DOUGLAS        LGT RAIN  41  39  93 E20       30.03F
EMPIRE MTNS    NOT AVBL
MULESHOE RANCH N/A       43  36  76 E4G10             *PRESERVE
HEADQUARTERS   N/A       39  37  93 CALM              *CHIRICAHUA MTNS
$$

.............................NOTES.............................
THIS IS AN AUTOMATED COLLECTIVE WITH MINIMAL QUALITY CONTROL.
PIMA CO DEQ SITES HAVE NONSTANDARD WIND SENSOR HEIGHTS.
PIMA CO DEQ SITES DO NOT REPORT WIND GUSTS.
* INDICATES WIND SENSORS LOCATED AT 20 FEET INSTEAD OF 33 FEET.
..............................KEY..............................
SKY/WX - SKY CONDITION/WEATHER
TMP    - TEMPERATURE IN FAHRENHEIT
DP     - DEWPOINT IN FAHRENHEIT
RH     - RELATIVE HUMIDITY IN PERCENT
WIND   - DIRECTION AND SPEED IN MILES PER HOUR (MPH)
VRB    - VARIABLE WIND DIRECTION
PRES   - MEAN SEA LEVEL PRESSURE IN INCHES OF MERCURY
         F - FALLING PRESSURE   R - RISING PRESSURE
         S - STEADY PRESSURE
VSB    - VISIBILITY IN MILES
HX     - HEAT INDEX IN FAHRENHEIT
WCI    - WIND CHILL INDEX IN FAHRENHEIT
N/A    - NOT AVAILABLE
AFB    - AIR FORCE BASE
         DAVIS-MONTHAN IS DAVIS-MONTHAN AIR FORCE BASE
CYN    - CANYON
MTNS   - MOUNTAINS
NCA    - NATIONAL CONSERVATION AREA
NR     - NEAR
VLY    - VALLEY
CONTL  - CONTINENTAL
PIMA CO DEQ - PIMA COUNTY DEPT OF ENVIRONMENTAL QUALITY



USA.gov is the U.S. government's official web portal to all federal, state and local government web resources and services.